Voltar ao catálogo

CHONGZHOU

AtivoCiênciaSSO
NORAD 63989·PAYLOAD·🇨🇳 China
Este nome de satélite ainda não foi confirmado por fontes oficiais.

Lançado May 14, 2025 de Jiuquan Satellite Launch Center

Loading…

Próximas Passagens (próximas 24 horas)

TLE

AtualizadoSource: Space-Track

Época: Sep 14, 2026, 23:17 UTC

1 63989U 25100H   26257.97043677  .00038171  00000-0  93685-3 0  9992
2 63989  97.3608 334.7973 0005514 323.7217  36.3655 15.40579558 74666

Acompanhe CHONGZHOU em tempo real com AllMySat

Download on the App Store